Tracking 35331 objects as of 16-Sep-2026
HD Live streaming from Space Station
objects crossing your sky now

STARLINK-37886

Track STARLINK-37886 now!
10-day predictions
STARLINK-37886 is classified as:


NORAD ID: 69943
Int'l Code: 2026-157A
Launch date: July 9, 2026
Source: United States (US)
Launch site: AIR FORCE EASTERN TEST RANGE (AFETR)
Your satellite tracking list
Your tracking list is empty




NASA's NSSDC Master Catalog

Two Line Element Set (TLE):
1 69943U 26157A   26259.24161857  .00029821  00000-0  88970-3 0  9997
2 69943  53.1586 353.3006 0001843 328.3867  31.7025 15.34417895 10729
Source of the keplerian elements: AFSPC